sat.trackr.live / text

‹ back to catalog

STARLINK-35094

NORAD 65395 · 2025-191S

PAYLOAD ACTIVE UNKNOWN

§ Identity

Operator
Country
US
Launch date
2025-08-30
Launch site
AFWTR
Launch vehicle
Mass (kg)
RCS (m²)

Purposes: comms

External: N2YO · Heavens-Above · Gunter

§ Orbital elements

Epoch: 2026-05-25T02:08:15.484704Z

Period
95.64 min
Inclination
97.4513°
Eccentricity
0.0002362
Mean motion
15.05660626 rev/d
Perigee alt
547.8 km
Apogee alt
551.1 km
Semi-major
6,927.6 km
B*
3.0125e-4
RAAN
16.4283°
Arg perigee
79.2013°
Mean anomaly
280.9480°
Rev number
4,177

§ Raw data

STARLINK-350941 65395U 25191S   26145.08906811  .00004292  00000+0  30125-3 0  99972 65395  97.4513  16.4283 0002362  79.2013 280.9480 15.05660626 41775

JSON: /api/v1/satellites/65395 · /tle

For live sub-satellite position, see the globe view (requires WebGL).

§ Visibility from observer

Set your observer location to see the next 7 days of passes ≥ 10°. The values pass through the URL so the page stays shareable.

No JS? Fill the form by hand. The geolocation button needs JavaScript.